Meath Environmental Platform

Observations for Trim Patrick St

Time AQI Temp °C Hum % Pres Pa CO μg/m³ H₂S μg/m³ NO μg/m³ NO₂ μg/m³ O₃ μg/m³ SO₂ μg/m³ PM1 μg/m³ PM2.5 μg/m³ PM10 μg/m³
Saturday 1 August 2026
08:02 1 14.3 75 38,460 0.35 0 3.14 13.45 18.66 0 5.43 9.83 10.81
08:01 1 14.2 74 38,460 0.37 0 3.18 12.19 15.64 0 5.43 9.87 10.85
08:00 1 14.2 74 38,460 0.37 0 3.19 13.68 17.38 0 5.43 10.56 11.62
07:59 1 14.2 75 38,460 0.37 0 3.19 14.59 19.53 0 5.43 9.84 10.83
07:58 1 14.1 75 38,460 0.39 0 3.19 12.33 18.2 0 5.43 9.79 10.77
07:57 1 14.1 75 38,460 0.39 0 3.11 12.11 16.58 0 5.43 10.51 11.56
07:56 1 14.1 75 38,460 0.42 0 3.04 15.1 19.45 0 5.43 10.49 11.54
07:55 1 14.1 76 38,460 0.4 0 3.07 11.81 17.27 0 5.43 9.04 9.94
07:54 1 14 76 38,460 0.38 0 3.14 10.89 16.21 0 6.29 11.17 12.28
07:53 1 14 76 38,460 0.41 0 3.19 13.59 19.45 0 4.57 11.18 12.3
07:52 1 14 75 38,460 0.4 0 3.21 13.66 19.79 0 6.29 11.26 12.38
07:51 1 13.9 76 38,460 0.42 0 3.04 15.22 16.92 0 6.29 11.12 12.23
07:50 1 13.9 77 38,460 0.4 0 3.02 11.88 16.07 0 7.14 11.09 12.2
07:49 1 13.9 77 38,460 0.4 0 3.03 15.8 19.64 0 6.29 11.1 12.21
07:48 1 13.8 77 38,460 0.42 0 3.12 15.95 20.92 0 5.43 8.25 9.07
07:47 1 13.8 77 38,460 0.41 0 3.1 28.34 8.28 0 6.29 10.35 11.39
07:46 1 13.7 77 38,460 0.42 0 3.07 18.93 18.82 0 5.43 11.05 12.16
07:45 1 13.7 77 38,460 0.42 0 3.07 21.44 13.7 0 5.43 10.37 11.41
07:44 1 13.6 78 38,460 0.42 0 3.09 16.26 15.76 0 5.43 10.31 11.34
07:42 1 13.5 78 38,460 0.43 0 3.29 12.42 17.44 0 6.29 11.02 12.12